Location: Nordegg
(52.4712°N, 116.0743°W)
Time: 14:14:43
(UTC+00:00)

Envisat - Pass Details

Date: 30 November 2021
Orbit: 764 x 766 km, 98.2° (Epoch: 26 January)

Event Time Altitude Azimuth Distance (km) Brightness Sun altitude
Rises 00:57:34 0° 204° (SSW) 3,222 6.9 -11.9°
Reaches altitude 10° 01:00:22 10° 219° (SW) 2,302 6.4 -12.3°
Maximum altitude 01:04:16 22° 270° (W) 1,629 5.7 -12.8°
Drops below altitude 10° 01:08:12 10° 321° (NW) 2,316 5.8 -13.4°
Sets 01:11:02 0° 336° (NNW) 3,248 6.3 -13.8°
